Location: DaVinci Observatory
(43.1080°N, 78.6453°W)
Time: 14:58:27
(UTC-05:00)

Tiangong 1 - Pass Details

Date: 12 October 2017
Orbit: 275 x 301 km, 42.8° (Epoch: 15 December)

Event Time Altitude Azimuth Distance (km) Brightness Sun altitude
Rises 19:35:54 0° 276° (W) 2,084 6.9 -11.7°
Reaches altitude 10° 19:37:56 10° 274° (W) 1,237 5.2 -12.0°
Maximum altitude 19:40:42 71° 189° (S) 338 0.7 -12.5°
Enters shadow 19:41:59 27° 111° (ESE) 649 1.7 -12.8°
